GW5801 Weather Reports


Display with metric or nautical units.
time (UTC)temp
F
wind
direction
speed
MPH
gust
MPH
rain 1hr
in
rain 24hr
in
rain mn
in
humidity
%
barometer
mb
20260504210039 82 169 2.0 6.0 0.00 0.00 0.00 57 1013.1
20260504205537 81 301 1.0 3.0 0.00 0.00 0.00 58 1013.1
20260504205035 81 108 1.0 2.0 0.00 0.00 0.00 58 1013.1
20260504204532 82 128 1.0 7.0 0.00 0.00 0.00 57 1013.3
20260504204031 82 241 1.0 3.0 0.00 0.00 0.00 57 1013.4
20260504203529 81 254 1.0 4.0 0.00 0.00 0.00 57 1013.4
20260504203026 81 257 2.0 3.0 0.00 0.00 0.00 57 1013.3
20260504202521 82 195 1.0 2.0 0.00 0.00 0.00 57 1013.7
20260504202019 82 76 1.0 3.0 0.00 0.00 0.00 57 1013.5
20260504201516 82 234 2.0 3.0 0.00 0.00 0.00 56 1013.8
20260504201014 81 190 3.0 6.0 0.00 0.00 0.00 57 1013.6
20260504200510 81 300 0.0 6.0 0.00 0.00 0.00 58 1013.8
20260504200007 81 144 0.0 3.0 0.00 0.00 0.00 57 1013.9
20260504195503 81 288 1.0 6.0 0.00 0.00 0.00 57 1014.0
20260504194959 81 319 0.0 2.0 0.00 0.00 0.00 57 1014.1
20260504194455 82 130 3.0 7.0 0.00 0.00 0.00 56 1013.8
20260504193951 82 267 1.0 3.0 0.00 0.00 0.00 56 1014.1
20260504193449 82 276 1.0 1.0 0.00 0.00 0.00 56 1014.2
20260504192947 81 264 1.0 3.0 0.00 0.00 0.00 58 1014.4
20260504192444 82 272 3.0 6.0 0.00 0.00 0.00 55 1014.5
20260504191943 82 282 3.0 8.0 0.00 0.00 0.00 54 1014.3
20260504191441 83 216 3.0 7.0 0.00 0.00 0.00 53 1014.4
20260504190935 83 194 1.0 2.0 0.00 0.00 0.00 56 1014.5
20260504190431 83 312 1.0 3.0 0.00 0.00 0.00 52 1014.4
20260504185928 82 125 2.0 4.0 0.00 0.00 0.00 56 1014.3
20260504185426 82 250 1.0 6.0 0.00 0.00 0.00 55 1014.6
20260504184921 82 200 1.0 3.0 0.00 0.00 0.00 56 1014.6
20260504184417 82 58 1.0 7.0 0.00 0.00 0.00 55 1014.5
20260504183913 82 252 2.0 3.0 0.00 0.00 0.00 55 1014.3
20260504183411 82 189 4.0 6.0 0.00 0.00 0.00 54 1014.5
20260504182909 82 154 2.0 4.0 0.00 0.00 0.00 53 1014.6
20260504182405 82 274 0.0 7.0 0.00 0.00 0.00 54 1014.8
20260504181902 81 152 1.0 6.0 0.00 0.00 0.00 55 1014.9
20260504181359 81 210 3.0 7.0 0.00 0.00 0.00 55 1015.1
20260504180858 81 290 2.0 2.0 0.00 0.00 0.00 57 1015.0
20260504180356 81 225 3.0 4.0 0.00 0.00 0.00 57 1015.1
20260504175854 81 127 2.0 4.0 0.00 0.00 0.00 57 1015.1
20260504175350 81 126 3.0 6.0 0.00 0.00 0.00 55 1015.2
20260504174849 81 182 2.0 8.0 0.00 0.00 0.00 56 1015.2
20260504174346 80 18 0.0 6.0 0.00 0.00 0.00 57 1015.2
20260504173843 81 144 2.0 3.0 0.00 0.00 0.00 54 1015.4
20260504173340 80 234 1.0 3.0 0.00 0.00 0.00 53 1015.6
20260504172837 80 148 4.0 6.0 0.00 0.00 0.00 55 1015.6
20260504172333 81 241 1.0 6.0 0.00 0.00 0.00 55 1015.4
20260504171829 81 176 5.0 9.0 0.00 0.00 0.00 54 1015.7
20260504171326 80 234 1.0 6.0 0.00 0.00 0.00 58 1015.6
20260504170824 80 213 2.0 7.0 0.00 0.00 0.00 57 1015.7
20260504170320 80 145 3.0 4.0 0.00 0.00 0.00 57 1015.8
20260504160238 78 240 3.0 4.0 0.00 0.00 0.00 58 1016.5
20260504150704 76 84 2.0 6.0 0.00 0.00 0.00 64 1016.5
20260504150201 75 245 2.0 3.0 0.00 0.00 0.00 65 1016.6
20260504141130 72 161 3.0 4.0 0.00 0.00 0.00 69 1016.1
20260504140626 71 295 1.0 3.0 0.00 0.00 0.00 68 1016.2
20260504140122 71 245 1.0 2.0 0.00 0.00 0.00 69 1016.3
20260504130550 62 200 0.0 0.0 0.00 0.00 0.00 85 1016.4
20260504110438 58 200 0.0 0.0 0.00 0.00 0.00 90 1016.0
20260504100401 59 200 0.0 0.0 0.00 0.00 0.00 87 1016.0
20260504081754 61 200 0.0 0.0 0.00 0.00 0.00 77 1017.0
20260504081250 61 200 0.0 0.0 0.00 0.00 0.00 78 1016.9
20260504080747 61 200 0.0 0.0 0.00 0.00 0.00 77 1017.3
20260504080243 61 200 0.0 0.0 0.00 0.00 0.00 76 1017.3
20260504070211 60 200 0.0 0.0 0.00 0.00 0.00 79 1018.0
20260504060131 60 200 0.0 0.0 0.00 0.00 0.00 80 1018.4
20260504050600 60 200 0.0 0.0 0.00 0.00 0.00 78 1018.9
20260504045553 61 200 0.0 0.0 0.00 0.00 0.00 77 1019.0
20260504045049 61 200 0.0 0.0 0.00 0.00 0.00 76 1019.0
20260504044547 61 200 0.0 0.0 0.00 0.00 0.00 75 1019.0
20260504044043 61 200 0.0 0.0 0.00 0.00 0.00 74 1019.2
20260504043540 62 200 0.0 0.0 0.00 0.00 0.00 74 1019.2
20260504043038 62 200 0.0 0.0 0.00 0.00 0.00 73 1019.0
20260504042534 62 200 0.0 0.0 0.00 0.00 0.00 72 1019.0
20260504042032 62 200 0.0 0.0 0.00 0.00 0.00 71 1019.0
20260504041527 62 200 0.0 0.0 0.00 0.00 0.00 70 1019.0
20260504041023 63 200 0.0 0.0 0.00 0.00 0.00 70 1019.0
20260504040521 63 200 0.0 0.0 0.00 0.00 0.00 69 1019.0
20260504040018 64 200 0.0 0.0 0.00 0.00 0.00 69 1019.1
20260504035515 64 200 0.0 0.0 0.00 0.00 0.00 68 1018.8
20260504035011 64 200 0.0 0.0 0.00 0.00 0.00 67 1019.0
20260504034509 64 200 0.0 0.0 0.00 0.00 0.00 66 1019.1
20260504034006 65 200 0.0 0.0 0.00 0.00 0.00 66 1019.0
20260504033503 65 200 0.0 0.0 0.00 0.00 0.00 65 1019.1
20260504033000 65 202 0.0 0.0 0.00 0.00 0.00 65 1019.0
20260504032457 65 202 0.0 0.0 0.00 0.00 0.00 65 1019.2
20260504031954 65 202 0.0 0.0 0.00 0.00 0.00 64 1018.8
20260504031451 65 202 0.0 0.0 0.00 0.00 0.00 63 1018.7
20260504030947 66 202 0.0 0.0 0.00 0.00 0.00 62 1018.9
20260504030445 66 202 0.0 0.0 0.00 0.00 0.00 63 1018.8
20260504025940 67 202 0.0 0.0 0.00 0.00 0.00 61 1018.8
20260504025437 67 202 0.0 0.0 0.00 0.00 0.00 60 1019.0
20260504024935 68 202 0.0 0.0 0.00 0.00 0.00 59 1018.9
20260504024431 68 202 0.0 0.0 0.00 0.00 0.00 58 1019.1
20260504023928 68 208 0.0 1.0 0.00 0.00 0.00 57 1019.2
20260504023425 68 213 0.0 1.0 0.00 0.00 0.00 57 1019.0
20260504022920 68 185 0.0 1.0 0.00 0.00 0.00 56 1018.8
20260504022417 69 194 0.0 2.0 0.00 0.00 0.00 56 1018.9
20260504021914 69 189 0.0 1.0 0.00 0.00 0.00 56 1018.8
20260504021411 69 200 0.0 2.0 0.00 0.00 0.00 55 1018.9
20260504020909 69 249 0.0 0.0 0.00 0.00 0.00 56 1018.8
20260504020405 69 239 0.0 1.0 0.00 0.00 0.00 55 1018.7
20260504015901 69 204 0.0 1.0 0.00 0.00 0.00 55 1018.9
20260504015357 70 220 0.0 0.0 0.00 0.00 0.00 54 1018.9
20260504014853 70 193 0.0 2.0 0.00 0.00 0.00 54 1018.8
20260504014349 70 201 1.0 1.0 0.00 0.00 0.00 53 1018.8
20260504013847 70 194 1.0 2.0 0.00 0.00 0.00 53 1018.7
20260504013345 70 176 0.0 2.0 0.00 0.00 0.00 53 1018.8
20260504012841 71 199 1.0 3.0 0.00 0.00 0.00 52 1018.7
20260504012339 71 231 0.0 3.0 0.00 0.00 0.00 51 1018.7
20260504011836 71 179 1.0 2.0 0.00 0.00 0.00 51 1018.8
20260504011333 71 216 1.0 2.0 0.00 0.00 0.00 50 1018.5
20260504010829 71 184 0.0 1.0 0.00 0.00 0.00 50 1018.6
20260504010324 71 209 1.0 1.0 0.00 0.00 0.00 50 1018.7
20260504005821 72 207 0.0 1.0 0.00 0.00 0.00 50 1018.8
20260504005318 72 189 2.0 3.0 0.00 0.00 0.00 49 1018.8
20260504004816 72 214 0.0 2.0 0.00 0.00 0.00 49 1018.6
20260504004313 72 238 0.0 2.0 0.00 0.00 0.00 49 1018.7
20260504003809 72 244 0.0 2.0 0.00 0.00 0.00 48 1018.6
20260504003307 73 194 0.0 0.0 0.00 0.00 0.00 48 1018.7
20260504002803 73 216 0.0 1.0 0.00 0.00 0.00 47 1018.6
20260504002300 74 199 2.0 3.0 0.00 0.00 0.00 45 1018.4
20260504001758 74 204 0.0 1.0 0.00 0.00 0.00 46 1018.7
20260504001255 74 206 2.0 3.0 0.00 0.00 0.00 44 1018.6
20260504000751 75 273 1.0 2.0 0.00 0.00 0.00 44 1018.7
20260504000248 75 161 1.0 2.0 0.00 0.00 0.00 44 1018.6
20260503235746 75 217 0.0 3.0 0.00 0.00 0.00 44 1018.6
20260503235243 75 61 1.0 2.0 0.00 0.00 0.00 44 1018.7
20260503234741 75 292 1.0 3.0 0.00 0.00 0.00 43 1018.8
20260503234239 75 252 1.0 3.0 0.00 0.00 0.00 43 1018.8
20260503233736 76 192 2.0 2.0 0.00 0.00 0.00 43 1018.8
20260503233231 76 192 0.0 2.0 0.00 0.00 0.00 43 1019.0
20260503232728 76 250 2.0 6.0 0.00 0.00 0.00 42 1018.9
20260503232226 76 215 1.0 2.0 0.00 0.00 0.00 42 1019.0
20260503231724 76 138 2.0 4.0 0.00 0.00 0.00 41 1018.9
20260503231220 77 205 1.0 3.0 0.00 0.00 0.00 41 1019.0
20260503230716 77 29 0.0 1.0 0.00 0.00 0.00 42 1019.1
20260503230214 77 152 2.0 3.0 0.00 0.00 0.00 42 1019.1
20260503225711 77 192 1.0 3.0 0.00 0.00 0.00 41 1019.2
20260503225206 77 271 0.0 1.0 0.00 0.00 0.00 43 1019.0
20260503224704 77 83 1.0 2.0 0.00 0.00 0.00 42 1019.0
20260503224201 77 188 1.0 2.0 0.00 0.00 0.00 41 1019.3
20260503223659 77 77 1.0 2.0 0.00 0.00 0.00 40 1019.2
20260503223156 78 87 2.0 3.0 0.00 0.00 0.00 39 1019.4
20260503222652 78 139 1.0 3.0 0.00 0.00 0.00 42 1019.4
20260503222150 78 263 1.0 2.0 0.00 0.00 0.00 40 1019.4
20260503221648 78 87 2.0 3.0 0.00 0.00 0.00 40 1019.3
20260503221145 78 69 2.0 3.0 0.00 0.00 0.00 39 1019.2
20260503220642 78 254 2.0 2.0 0.00 0.00 0.00 40 1019.3
20260503220138 78 133 0.0 2.0 0.00 0.00 0.00 40 1019.4
20260503215636 79 31 0.0 3.0 0.00 0.00 0.00 39 1019.4
20260503215132 79 136 1.0 2.0 0.00 0.00 0.00 39 1019.5
20260503214631 79 206 0.0 2.0 0.00 0.00 0.00 38 1019.7
20260503214126 79 127 2.0 3.0 0.00 0.00 0.00 39 1019.9
20260503213625 79 66 1.0 2.0 0.00 0.00 0.00 39 1019.8
20260503213121 80 31 1.0 2.0 0.00 0.00 0.00 37 1019.9
20260503212619 80 112 0.0 2.0 0.00 0.00 0.00 37 1019.9
20260503212116 79 140 0.0 2.0 0.00 0.00 0.00 37 1020.1
20260503211614 80 65 2.0 3.0 0.00 0.00 0.00 37 1020.0
20260503211109 80 76 1.0 3.0 0.00 0.00 0.00 38 1020.1
20260503210606 79 290 1.0 1.0 0.00 0.00 0.00 39 1020.3